• Em Portugal
  • Lista de países
  • Para 7 dias
  • Temperatura da água
  • Mapas de satélite
  • Mapa do tempo
  • Widgets de tempo
  • user-avatar
    Iniciar Sessão

    Previsão horária em Apole

    Hoje, 18 Julho, Quarta-feira

    Tempo Temperatura Precipitação Vento Pressão Humidade
    00:00 +20°C° 0 mm 3 m/s 742 mmHg 79%
    01:00 +19°C° 0 mm 3 m/s 742 mmHg 80%
    02:00 +18°C° 0 mm 3 m/s 742 mmHg 80%
    03:00 +18°C° 0 mm 3 m/s 742 mmHg 81%
    04:00 +18°C° 0 mm 3 m/s 742 mmHg 81%
    05:00 +18°C° 0 mm 3 m/s 742 mmHg 82%
    06:00 +19°C° 0 mm 3 m/s 742 mmHg 76%
    07:00 +21°C° 0 mm 4 m/s 742 mmHg 71%
    08:00 +22°C° 0 mm 4 m/s 742 mmHg 66%
    09:00 +25°C° 0 mm 4 m/s 741 mmHg 62%
    10:00 +26°C° 0 mm 5 m/s 741 mmHg 58%
    11:00 +27°C° 0 mm 5 m/s 741 mmHg 54%
    12:00 +27°C° 1 mm 5 m/s 741 mmHg 59%
    13:00 +27°C° 1 mm 5 m/s 741 mmHg 64%
    14:00 +27°C° 1 mm 5 m/s 740 mmHg 69%
    15:00 +26°C° 0,3 mm 4 m/s 741 mmHg 68%
    16:00 +25°C° 0,3 mm 4 m/s 741 mmHg 67%
    17:00 +25°C° 0,3 mm 4 m/s 741 mmHg 66%
    18:00 +24°C° 0,1 mm 3 m/s 741 mmHg 71%
    19:00 +21°C° 0,1 mm 3 m/s 741 mmHg 77%
    20:00 +20°C° 0,1 mm 3 m/s 741 mmHg 83%
    21:00 +20°C° 0,6 mm 3 m/s 741 mmHg 87%
    22:00 +19°C° 0,6 mm 3 m/s 741 mmHg 91%
    23:00 +19°C° 0,6 mm 3 m/s 741 mmHg 95%

    Amanhã, 19 Julho, Quinta-feira

    Tempo Temperatura Precipitação Vento Pressão Humidade
    00:00 +18°C° 0,2 mm 3 m/s 740 mmHg 96%
    01:00 +18°C° 0,2 mm 3 m/s 740 mmHg 96%
    02:00 +18°C° 0,2 mm 3 m/s 740 mmHg 96%
    03:00 +18°C° 0,6 mm 3 m/s 740 mmHg 97%
    04:00 +18°C° 0,6 mm 3 m/s 740 mmHg 97%
    05:00 +18°C° 0,6 mm 3 m/s 740 mmHg 97%
    06:00 +19°C° 0,3 mm 3 m/s 740 mmHg 96%
    07:00 +19°C° 0,3 mm 3 m/s 740 mmHg 95%
    08:00 +19°C° 0,3 mm 3 m/s 740 mmHg 94%
    09:00 +20°C° 0 mm 3 m/s 740 mmHg 92%
    10:00 +20°C° 0 mm 3 m/s 741 mmHg 90%
    11:00 +21°C° 0 mm 3 m/s 741 mmHg 88%
    12:00 +22°C° 0,1 mm 4 m/s 741 mmHg 81%
    13:00 +23°C° 0,1 mm 4 m/s 741 mmHg 74%
    14:00 +26°C° 0,1 mm 4 m/s 741 mmHg 68%
    15:00 +26°C° 0,1 mm 4 m/s 741 mmHg 69%
    16:00 +26°C° 0,1 mm 3 m/s 740 mmHg 71%
    17:00 +26°C° 0,1 mm 3 m/s 740 mmHg 73%
    18:00 +24°C° 0 mm 3 m/s 740 mmHg 78%
    19:00 +22°C° 0 mm 3 m/s 740 mmHg 83%
    20:00 +21°C° 0 mm 2 m/s 740 mmHg 88%
    21:00 +21°C° 0 mm 2 m/s 740 mmHg 91%
    22:00 +20°C° 0 mm 2 m/s 740 mmHg 94%
    23:00 +19°C° 0 mm 2 m/s 740 mmHg 97%

    Depois de amanhã, 20 Julho, Sexta-feira

    Tempo Temperatura Precipitação Vento Pressão Humidade
    00:00 +19°C° 0 mm 2 m/s 740 mmHg 97%
    01:00 +19°C° 0 mm 2 m/s 740 mmHg 98%
    02:00 +19°C° 0 mm 2 m/s 740 mmHg 98%
    03:00 +19°C° 0 mm 3 m/s 740 mmHg 98%
    04:00 +19°C° 0 mm 3 m/s 740 mmHg 97%
    05:00 +19°C° 0 mm 3 m/s 740 mmHg 97%
    06:00 +20°C° 0,2 mm 3 m/s 740 mmHg 95%
    07:00 +20°C° 0,2 mm 3 m/s 740 mmHg 93%
    08:00 +20°C° 0,2 mm 4 m/s 740 mmHg 92%
    09:00 +21°C° 0,5 mm 4 m/s 740 mmHg 89%
    10:00 +22°C° 0,5 mm 4 m/s 740 mmHg 87%
    11:00 +22°C° 0,5 mm 4 m/s 740 mmHg 84%
    12:00 +23°C° 0,7 mm 4 m/s 740 mmHg 85%
    13:00 +23°C° 0,7 mm 4 m/s 740 mmHg 85%
    14:00 +23°C° 0,7 mm 4 m/s 740 mmHg 85%
    15:00 +23°C° 0,5 mm 4 m/s 740 mmHg 84%
    16:00 +23°C° 0,5 mm 4 m/s 740 mmHg 84%
    17:00 +24°C° 0,5 mm 3 m/s 740 mmHg 83%
    18:00 +22°C° 0,1 mm 3 m/s 740 mmHg 86%
    19:00 +22°C° 0,1 mm 3 m/s 740 mmHg 88%
    20:00 +21°C° 0,1 mm 3 m/s 740 mmHg 90%
    21:00 +20°C° 0 mm 2 m/s 740 mmHg 92%
    22:00 +19°C° 0 mm 2 m/s 740 mmHg 94%
    23:00 +18°C° 0 mm 2 m/s 740 mmHg 96%

    21 Julho, Sábado

    Tempo Temperatura Precipitação Vento Pressão Humidade
    00:00 +18°C° 0 mm 2 m/s 740 mmHg 97%
    01:00 +18°C° 0 mm 2 m/s 739 mmHg 98%
    02:00 +17°C° 0 mm 2 m/s 739 mmHg 98%
    03:00 +17°C° 0,1 mm 2 m/s 739 mmHg 98%
    04:00 +17°C° 0,1 mm 2 m/s 739 mmHg 97%
    05:00 +18°C° 0,1 mm 2 m/s 739 mmHg 97%
    06:00 +18°C° 0,1 mm 2 m/s 739 mmHg 94%
    07:00 +19°C° 0,1 mm 2 m/s 739 mmHg 92%
    08:00 +20°C° 0,1 mm 2 m/s 739 mmHg 89%
    09:00 +21°C° 0,1 mm 2 m/s 739 mmHg 86%
    10:00 +23°C° 0,1 mm 2 m/s 739 mmHg 83%
    11:00 +24°C° 0,1 mm 2 m/s 739 mmHg 80%
    12:00 +24°C° 0,4 mm 2 m/s 739 mmHg 80%
    13:00 +25°C° 0,4 mm 1 m/s 739 mmHg 80%
    14:00 +25°C° 0,4 mm 1 m/s 739 mmHg 80%
    15:00 +25°C° 0,8 mm 1 m/s 739 mmHg 81%
    16:00 +25°C° 0,8 mm 1 m/s 738 mmHg 82%
    17:00 +25°C° 0,8 mm 1 m/s 738 mmHg 83%
    18:00 +24°C° 0,9 mm 1 m/s 738 mmHg 86%
    19:00 +23°C° 0,9 mm 1 m/s 738 mmHg 90%
    20:00 +22°C° 0,9 mm 1 m/s 738 mmHg 94%
    21:00 +22°C° 0,6 mm 1 m/s 737 mmHg 95%
    22:00 +21°C° 0,6 mm 1 m/s 737 mmHg 97%
    23:00 +20°C° 0,6 mm 1 m/s 737 mmHg 98%

    22 Julho, Domingo

    Tempo Temperatura Precipitação Vento Pressão Humidade
    00:00 +20°C° 0,4 mm 1 m/s 737 mmHg 98%
    01:00 +20°C° 0,4 mm 1 m/s 737 mmHg 98%
    02:00 +20°C° 0,4 mm 1 m/s 737 mmHg 98%
    03:00 +20°C° 0,9 mm 1 m/s 737 mmHg 98%
    04:00 +20°C° 0,9 mm 1 m/s 737 mmHg 98%
    05:00 +20°C° 0,9 mm 1 m/s 737 mmHg 98%
    06:00 +21°C° 0,2 mm 1 m/s 737 mmHg 97%
    07:00 +22°C° 0,2 mm 1 m/s 737 mmHg 95%
    08:00 +22°C° 0,2 mm 1 m/s 737 mmHg 94%
    09:00 +23°C° 0,4 mm 1 m/s 736 mmHg 92%
    10:00 +24°C° 0,4 mm 1 m/s 736 mmHg 89%
    11:00 +24°C° 0,4 mm 1 m/s 736 mmHg 87%
    12:00 +25°C° 0,2 mm 1 m/s 736 mmHg 84%
    13:00 +25°C° 0,2 mm 1 m/s 736 mmHg 80%
    14:00 +26°C° 0,2 mm 1 m/s 736 mmHg 76%
    15:00 +26°C° 0,2 mm 1 m/s 736 mmHg 76%
    16:00 +26°C° 0,2 mm 1 m/s 736 mmHg 76%
    17:00 +26°C° 0,2 mm 1 m/s 736 mmHg 77%
    18:00 +25°C° 0,7 mm 1 m/s 736 mmHg 82%
    19:00 +24°C° 0,7 mm 2 m/s 736 mmHg 88%
    20:00 +21°C° 0,7 mm 2 m/s 736 mmHg 93%
    21:00 +21°C° 0,6 mm 2 m/s 736 mmHg 95%
    22:00 +20°C° 0,6 mm 2 m/s 736 mmHg 96%
    23:00 +19°C° 0,6 mm 2 m/s 736 mmHg 98%

    23 Julho, Segunda-feira

    Tempo Temperatura Precipitação Vento Pressão Humidade
    00:00 +19°C° 0,6 mm 3 m/s 737 mmHg 98%
    01:00 +19°C° 0,6 mm 3 m/s 737 mmHg 98%
    02:00 +19°C° 0,6 mm 3 m/s 737 mmHg 98%
    03:00 +19°C° 0,1 mm 3 m/s 737 mmHg 97%
    04:00 +18°C° 0,1 mm 3 m/s 737 mmHg 97%
    05:00 +18°C° 0,1 mm 3 m/s 738 mmHg 97%
    06:00 +17°C° 0,1 mm 3 m/s 738 mmHg 96%
    07:00 +17°C° 0,1 mm 3 m/s 738 mmHg 95%
    08:00 +17°C° 0,1 mm 4 m/s 738 mmHg 94%
    09:00 +18°C° 0 mm 3 m/s 739 mmHg 87%
    10:00 +19°C° 0 mm 3 m/s 739 mmHg 80%
    11:00 +20°C° 0 mm 3 m/s 739 mmHg 73%
    12:00 +21°C° 0 mm 3 m/s 740 mmHg 67%
    13:00 +22°C° 0 mm 3 m/s 740 mmHg 61%
    14:00 +25°C° 0 mm 3 m/s 740 mmHg 55%
    15:00 +25°C° 0 mm 3 m/s 740 mmHg 54%
    16:00 +25°C° 0 mm 2 m/s 740 mmHg 54%
    17:00 +26°C° 0 mm 2 m/s 740 mmHg 54%
    18:00 +24°C° 0 mm 2 m/s 740 mmHg 62%
    19:00 +21°C° 0 mm 2 m/s 741 mmHg 70%
    20:00 +20°C° 0 mm 1 m/s 741 mmHg 78%
    21:00 +19°C° 0 mm 1 m/s 741 mmHg 80%
    22:00 +18°C° 0 mm 1 m/s 741 mmHg 83%
    23:00 +16°C° 0 mm 1 m/s 742 mmHg 86%
    Mostrar mais